Weather History for KLSF - July, 2013

Change the Weather History Date:

Sunday, July 28, 2013

  Actual Average Record
Temperature  
Mean Temperature 78 °F -  
Max Temperature 89 °F 89 °F 98 °F (2010)
Min Temperature 66 °F 68 °F 66 °F (2013)
Cooling Degree Days 12    
Growing Degree Days 28 (Base 50)    
Moisture  
Dew Point 70 °F    
Average Humidity 95    
Maximum Humidity 100    
Minimum Humidity 59    
Precipitation  
Precipitation 0.00 in - - ()
Sea Level Pressure  
Sea Level Pressure 29.96 in    
Wind  
Wind Speed 1 mph (SE)    
Max Wind Speed 8 mph    
Max Gust Speed -    
Visibility 4 miles    
Events Fog , Rain    
Averages and records for this station are not official NWS values.
T = Trace of Precipitation, MM = Missing Value Source: NWS Daily Summary

Daily Weather History Graph

Daily Weather History Graph

Search for Another Location

Airport or City:

Trip Planner

Search our weather history database for the weather conditions in past years. The results will help you decide how hot, cold, wet, or windy it might be!

Date:

Astronomy

Jul. 28, 2013 Rise Set
Actual Time 6:52 AM EDT 8:40 PM EDT
Civil Twilight 6:25 AM EDT 9:07 PM EDT
Nautical Twilight 5:52 AM EDT 9:39 PM EDT
Astronomical Twilight 5:18 AM EDT 10:14 PM EDT
Moon No Moon Rise 1:06 PM EDT (7/28)
Length of Visible Light 14h 42m
Length of Day
13h 48m
Waning Gibbous, 61% of the Moon is Illuminated
Jul 28
Waning Gibbous
Jul 29
Last Quarter
Aug 6
New
Aug 14
First Quarter
Aug 20
Full

Hourly Weather History & Observations

Time (EDT) Temp. Heat Index Dew Point Humidity Pressure Visibility Wind Dir Wind Speed Gust Speed Precip Events Conditions
12:03 AM 71.6 °F - 71.6 °F 100% 29.95 in 9.0 mi Calm Calm - N/A   Clear
12:09 AM 71.6 °F - 71.6 °F 100% 29.95 in 10.0 mi Calm Calm - N/A Rain Light Rain
12:14 AM 71.6 °F - 71.6 °F 100% 29.95 in 9.0 mi Calm Calm - N/A   Clear
12:24 AM 71.6 °F - 71.6 °F 100% 29.94 in 9.0 mi Calm Calm - N/A   Clear
12:44 AM 71.6 °F - 69.8 °F 94% 29.94 in 2.5 mi ESE 1.2 mph - N/A   Clear
12:49 AM 71.6 °F - 69.8 °F 94% 29.94 in 2.0 mi Calm Calm - N/A   Clear
12:54 AM 69.8 °F - 69.8 °F 100% 29.94 in 4.0 mi Calm Calm - N/A   Clear
12:58 AM 70.3 °F - 70.0 °F 99% 29.94 in 5.0 mi Calm Calm - 0.00 in   Clear
1:08 AM 69.8 °F - 69.8 °F 100% 29.94 in 1.5 mi Calm Calm - N/A   Clear
1:13 AM 69.8 °F - 69.8 °F 100% 29.94 in 0.8 mi Calm Calm - N/A   Clear
1:18 AM 69.8 °F - 69.8 °F 100% 29.94 in 0.5 mi Calm Calm - N/A Fog Fog
1:58 AM 69.8 °F - 69.8 °F 100% 29.94 in 1.0 mi Calm Calm - N/A   Clear
2:08 AM 69.8 °F - 69.8 °F 100% 29.93 in 0.5 mi Calm Calm - N/A Fog Fog
2:18 AM 69.8 °F - 69.8 °F 100% 29.93 in 1.0 mi Calm Calm - N/A   Clear
2:23 AM 69.8 °F - 69.8 °F 100% 29.93 in 1.5 mi Calm Calm - N/A   Clear
2:28 AM 69.8 °F - 69.8 °F 100% 29.93 in 1.0 mi Calm Calm - N/A   Clear
2:33 AM 69.8 °F - 69.8 °F 100% 29.94 in 0.8 mi Calm Calm - N/A   Clear
2:38 AM 69.8 °F - 69.8 °F 100% 29.94 in 1.0 mi Calm Calm - N/A   Clear
2:43 AM 69.8 °F - 69.8 °F 100% 29.94 in 2.0 mi Calm Calm - N/A   Clear
2:48 AM 69.8 °F - 69.8 °F 100% 29.94 in 1.5 mi Calm Calm - N/A   Clear
2:53 AM 69.8 °F - 69.8 °F 100% 29.94 in 2.5 mi Calm Calm - N/A   Clear
2:58 AM 69.8 °F - 69.8 °F 100% 29.94 in 1.8 mi Calm Calm - N/A   Clear
3:03 AM 68.0 °F - 68.0 °F 100% 29.94 in 0.8 mi Calm Calm - N/A   Clear
3:08 AM 68.0 °F - 68.0 °F 100% 29.94 in 0.5 mi Calm Calm - N/A Fog Fog
3:13 AM 68.0 °F - 68.0 °F 100% 29.94 in 0.2 mi Calm Calm - N/A Fog Fog
3:18 AM 68.0 °F - 68.0 °F 100% 29.94 in 0.8 mi SSE 2.3 mph - N/A   Partly Cloudy
3:23 AM 68.0 °F - 68.0 °F 100% 29.94 in 3.0 mi SE 1.2 mph - N/A   Partly Cloudy
3:33 AM 68.0 °F - 68.0 °F 100% 29.94 in 5.0 mi SE 2.3 mph - N/A   Partly Cloudy
3:48 AM 68.0 °F - 68.0 °F 100% 29.94 in 4.0 mi Calm Calm - N/A   Partly Cloudy
3:58 AM 68.7 °F - 68.5 °F 99% 29.94 in 4.0 mi Calm Calm - N/A   Partly Cloudy
4:03 AM 68.0 °F - 68.0 °F 100% 29.94 in 2.5 mi Calm Calm - N/A   Partly Cloudy
4:23 AM 68.0 °F - 68.0 °F 100% 29.94 in 1.8 mi Calm Calm - N/A   Scattered Clouds
4:28 AM 68.0 °F - 68.0 °F 100% 29.94 in 1.5 mi Calm Calm - N/A   Scattered Clouds
4:33 AM 68.0 °F - 68.0 °F 100% 29.94 in 1.5 mi Calm Calm - N/A   Scattered Clouds
4:38 AM 68.0 °F - 68.0 °F 100% 29.94 in 1.0 mi Calm Calm - N/A   Scattered Clouds
4:43 AM 68.0 °F - 68.0 °F 100% 29.94 in 0.5 mi Calm Calm - N/A Fog Fog
4:53 AM 68.0 °F - 68.0 °F 100% 29.94 in 1.0 mi Calm Calm - N/A   Partly Cloudy
4:58 AM 68.0 °F - 68.0 °F 100% 29.94 in 1.8 mi Calm Calm - N/A   Partly Cloudy
5:03 AM 68.0 °F - 68.0 °F 100% 29.94 in 1.0 mi Calm Calm - N/A   Clear
5:13 AM 68.0 °F - 68.0 °F 100% 29.94 in 1.0 mi SE 1.2 mph - N/A   Clear
5:18 AM 68.0 °F - 68.0 °F 100% 29.94 in 0.8 mi ESE 2.3 mph - N/A   Clear
5:23 AM 68.0 °F - 68.0 °F 100% 29.94 in 1.0 mi Calm Calm - N/A   Clear
5:28 AM 68.0 °F - 68.0 °F 100% 29.94 in 4.0 mi Calm Calm - N/A   Clear
5:33 AM 68.0 °F - 68.0 °F 100% 29.94 in 5.0 mi Calm Calm - N/A   Clear
5:38 AM 68.0 °F - 68.0 °F 100% 29.94 in 4.0 mi SW 2.3 mph - N/A   Clear
5:48 AM 68.0 °F - 68.0 °F 100% 29.94 in 2.5 mi SE 2.3 mph - N/A   Clear
5:53 AM 68.0 °F - 66.2 °F 94% 29.94 in 2.5 mi SE 2.3 mph - N/A   Clear
5:58 AM 67.3 °F - 67.1 °F 99% 29.94 in 5.0 mi SE 3.5 mph - N/A   Clear
6:13 AM 66.2 °F - 66.2 °F 100% 29.95 in 3.0 mi Calm Calm - N/A   Clear
6:18 AM 66.2 °F - 66.2 °F 100% 29.95 in 2.0 mi Calm Calm - N/A   Clear
6:23 AM 68.0 °F - 68.0 °F 100% 29.95 in 3.0 mi Calm Calm - N/A   Clear
6:33 AM 68.0 °F - 68.0 °F 100% 29.96 in 2.0 mi Calm Calm - N/A   Clear
6:43 AM 68.0 °F - 66.2 °F 94% 29.96 in 0.5 mi Calm Calm - N/A Fog Fog
6:48 AM 66.2 °F - 66.2 °F 100% 29.96 in 0.5 mi Calm Calm - N/A Fog Fog
6:53 AM 66.2 °F - 66.2 °F 100% 29.96 in 2.5 mi Calm Calm - N/A   Clear
6:58 AM 67.1 °F - 66.7 °F 99% 29.98 in 4.0 mi ESE 1.2 mph - N/A   Clear
7:03 AM 68.0 °F - 66.2 °F 94% 29.97 in 1.5 mi SE 2.3 mph - N/A   Clear
7:08 AM 68.0 °F - 66.2 °F 94% 29.97 in 0.2 mi ESE 1.2 mph - N/A Fog Fog
7:13 AM 66.2 °F - 66.2 °F 100% 29.97 in 0.2 mi SE 1.2 mph - N/A Fog Fog
7:23 AM 68.0 °F - 68.0 °F 100% 29.97 in 0.2 mi Calm Calm - N/A Fog Fog
7:28 AM 68.0 °F - 68.0 °F 100% 29.98 in 0.2 mi Calm Calm - N/A Fog Fog
7:33 AM 68.0 °F - 68.0 °F 100% 29.98 in 0.8 mi Calm Calm - N/A   Clear
7:38 AM 68.0 °F - 68.0 °F 100% 29.98 in 2.0 mi Calm Calm - N/A   Clear
7:43 AM 68.0 °F - 68.0 °F 100% 29.98 in 3.0 mi Calm Calm - N/A   Clear
7:58 AM 69.8 °F - 69.4 °F 99% 29.99 in 7.0 mi ESE 1.2 mph - N/A   Clear
8:58 AM 75.0 °F - 71.6 °F 89% 29.99 in 10.0 mi East 2.3 mph - N/A   Partly Cloudy
9:58 AM 77.0 °F - 72.0 °F 84% 29.99 in 10.0 mi South 2.3 mph - N/A   Scattered Clouds
10:58 AM 81.1 °F 85.4 °F 71.8 °F 73% 29.99 in 10.0 mi Calm Calm - N/A   Clear
11:58 AM 84.2 °F 89.9 °F 72.0 °F 67% 29.99 in 10.0 mi South 4.6 mph - N/A   Clear
12:58 PM 86.0 °F 91.8 °F 71.8 °F 62% 29.99 in 10.0 mi Calm Calm - N/A   Partly Cloudy
1:58 PM 87.1 °F 93.2 °F 71.8 °F 60% 29.97 in 10.0 mi Variable 2.3 mph - N/A   Partly Cloudy
2:58 PM 88.2 °F 95.0 °F 72.3 °F 59% 29.97 in 10.0 mi Variable 3.5 mph - N/A   Scattered Clouds
3:58 PM 89.2 °F 97.4 °F 73.4 °F 59% 29.96 in 10.0 mi SSE 3.5 mph - N/A   Partly Cloudy
4:58 PM 89.4 °F 97.8 °F 73.6 °F 59% 29.96 in 10.0 mi SSE 4.6 mph - N/A   Scattered Clouds
5:58 PM 86.7 °F 94.6 °F 73.6 °F 65% 29.96 in 10.0 mi South 8.1 mph - N/A   Partly Cloudy
6:58 PM 83.3 °F 90.5 °F 74.5 °F 75% 29.96 in 10.0 mi Variable 3.5 mph - N/A   Partly Cloudy
7:58 PM 81.3 °F 87.4 °F 75.0 °F 81% 29.99 in 10.0 mi South 2.3 mph - N/A   Clear
8:58 PM 77.4 °F - 75.4 °F 94% 30.01 in 10.0 mi East 2.3 mph - N/A   Clear
9:58 PM 75.4 °F - 75.2 °F 99% 30.01 in 10.0 mi Calm Calm - N/A   Clear
10:33 PM 73.4 °F - 73.4 °F 100% 30.02 in 9.0 mi NNE 1.2 mph - N/A   Clear
10:38 PM 73.4 °F - 73.4 °F 100% 30.03 in 9.0 mi Calm Calm - N/A   Clear
10:43 PM 73.4 °F - 73.4 °F 100% 30.03 in 8.0 mi Calm Calm - N/A   Clear
10:58 PM 73.8 °F - 73.8 °F 100% 30.02 in 9.0 mi Calm Calm - N/A   Clear
11:30 PM 73.4 °F - 73.4 °F 100% 30.02 in 6.0 mi Calm Calm - N/A   Light Drizzle
11:31 PM 73.4 °F - 73.4 °F 100% 30.02 in 5.0 mi Calm Calm - N/A   Clear
11:37 PM 73.4 °F - 73.4 °F 100% 30.02 in 3.0 mi Calm Calm - N/A   Clear
11:42 PM 73.4 °F - 73.4 °F 100% 30.02 in 2.5 mi Calm Calm - N/A   Clear
11:47 PM 73.4 °F - 73.4 °F 100% 30.03 in 4.0 mi Calm Calm - N/A   Clear
11:52 PM 73.4 °F - 73.4 °F 100% 30.03 in 7.0 mi West 1.2 mph - N/A   Clear
11:58 PM 73.2 °F - 73.2 °F 100% 30.02 in 8.0 mi Calm Calm - 0.00 in   Clear